FW1436 Weather Reports


time (UTC)temp
F
wind
direction
speed
knots
gust
knots
rain 1hr
in
rain 24hr
in
rain mn
in
humidity
%
barometer
mb
20260505193025 57 316 1.7 5.2 0.00 0.00 0.00 47 1009.6
20260505191527 58 303 1.7 7.0 0.00 0.00 0.00 45 1009.5
20260505190024 59 287 2.6 8.7 0.00 0.00 0.00 43 1009.4
20260505184525 61 282 2.6 8.7 0.00 0.00 0.00 41 1009.2
20260505183032 62 286 4.3 8.7 0.00 0.00 0.00 40 1009.2
20260505181522 62 354 3.5 8.7 0.00 0.00 0.00 38 1009.1
20260505180040 63 28 3.5 8.7 0.00 0.00 0.00 38 1009.0
20260505174520 63 307 4.3 10.4 0.00 0.00 0.00 37 1009.0
20260505173020 62 320 6.1 13.0 0.00 0.00 0.00 38 1009.0
20260505171519 63 324 3.5 11.3 0.00 0.00 0.00 37 1008.9
20260505170023 63 233 5.2 12.2 0.00 0.00 0.00 36 1008.9
20260505164518 63 8 0.9 8.7 0.00 0.00 0.00 36 1008.9
20260505163017 63 339 3.5 12.2 0.00 0.00 0.00 36 1008.9
20260505161517 63 311 3.5 12.2 0.00 0.00 0.00 37 1009.0
20260505153015 64 4 4.3 12.2 0.00 0.00 0.00 37 1009.0
20260505151514 63 311 5.2 13.9 0.00 0.00 0.00 38 1008.9
20260505124505 63 247 2.6 12.2 0.00 0.00 0.00 43 1009.3
20260505123102 62 240 3.5 12.2 0.00 0.00 0.00 45 1009.4
20260505121558 61 247 1.7 9.6 0.00 0.00 0.00 45 1009.5
20260505120059 62 258 3.5 9.6 0.00 0.00 0.00 44 1009.4
20260505114559 61 311 0.0 8.7 0.00 0.00 0.00 47 1009.6
20260505113056 62 275 2.6 11.3 0.00 0.00 0.00 45 1009.8
20260505111551 61 285 2.6 9.6 0.00 0.00 0.00 44 1009.9
20260505101601 60 290 1.7 7.8 0.00 0.00 0.00 49 1010.3
20260505100100 59 324 0.9 5.2 0.00 0.00 0.00 50 1010.4
20260505094543 60 189 1.7 5.2 0.00 0.00 0.00 49 1010.2
20260505093042 59 267 0.0 4.3 0.00 0.00 0.00 51 1010.3
20260505091539 58 252 0.0 2.6 0.00 0.00 0.00 55 1010.4
20260505090040 57 298 0.9 2.6 0.00 0.00 0.00 54 1010.3
20260505084536 57 222 0.0 2.6 0.00 0.00 0.00 57 1010.3
20260505083036 57 229 1.7 3.5 0.00 0.00 0.00 59 1010.3
20260505081531 56 109 1.7 8.7 0.00 0.00 0.00 66 1010.4
20260505080027 54 107 1.7 7.0 0.00 0.00 0.00 71 1010.4
20260505074526 55 100 0.0 4.3 0.00 0.00 0.00 68 1010.5
20260505073034 53 148 0.0 0.9 0.00 0.00 0.00 70 1010.5
20260505071524 52 217 0.0 0.0 0.00 0.00 0.00 75 1010.5
20260505070024 51 156 0.0 1.7 0.00 0.00 0.00 77 1010.3
20260505064524 50 115 0.0 2.6 0.00 0.00 0.00 80 1010.3
20260505063021 50 99 1.7 3.5 0.00 0.00 0.00 79 1010.2
20260505061525 49 119 0.0 0.9 0.00 0.00 0.00 79 1010.2
20260505060020 49 158 0.0 0.0 0.00 0.00 0.00 80 1010.2
20260505054519 49 158 0.0 0.0 0.00 0.00 0.00 80 1010.1
20260505053033 49 162 0.0 0.0 0.00 0.00 0.00 79 1009.9
20260505051534 49 162 0.0 0.0 0.00 0.00 0.00 77 1009.7
20260505041520 49 236 0.0 0.9 0.00 0.00 0.00 75 1009.7
20260505040015 49 82 0.0 0.0 0.00 0.00 0.00 82 1009.8
20260505034512 49 20 0.0 0.0 0.00 0.00 0.00 82 1009.7
20260505033009 51 240 0.0 0.0 0.00 0.00 0.00 79 1009.8
20260505031509 51 245 0.0 0.0 0.00 0.00 0.00 68 1009.7
20260505030007 52 245 0.0 0.9 0.00 0.00 0.00 67 1009.8
20260505024507 51 233 0.0 0.9 0.00 0.00 0.00 70 1009.9
20260505023012 51 233 0.0 0.0 0.00 0.00 0.00 76 1009.9
20260505021505 53 233 0.0 1.7 0.00 0.00 0.00 66 1009.9
20260505020003 51 267 0.0 0.0 0.00 0.00 0.00 73 1010.0
20260505014502 51 127 0.0 0.9 0.00 0.00 0.00 77 1010.1
20260505013059 52 127 0.0 0.9 0.00 0.00 0.00 71 1010.1
20260505011558 52 255 0.0 0.9 0.00 0.00 0.00 68 1010.1
20260505010116 52 237 0.0 0.0 0.00 0.00 0.00 68 1010.1
20260505004556 52 237 0.0 1.7 0.00 0.00 0.00 68 1010.2
20260505003058 52 229 0.0 1.7 0.00 0.00 0.00 69 1010.4
20260505001552 53 114 0.0 0.9 0.00 0.00 0.00 70 1010.5
20260505000050 54 259 0.0 0.9 0.00 0.00 0.00 64 1010.4
20260504234548 54 297 0.0 1.7 0.00 0.00 0.00 62 1010.4
20260504233048 54 292 0.0 1.7 0.00 0.00 0.00 63 1010.4
20260504231548 54 290 0.0 3.5 0.00 0.00 0.00 64 1010.3
20260504230049 54 291 0.9 3.5 0.00 0.00 0.00 65 1010.3
20260504224544 54 254 0.0 1.7 0.00 0.00 0.00 67 1010.2
20260504223057 54 243 0.0 2.6 0.00 0.00 0.00 67 1010.3
20260504221555 54 274 0.0 4.3 0.00 0.00 0.00 67 1010.4
20260504220038 55 261 0.0 2.6 0.00 0.00 0.00 67 1010.5
20260504214536 55 279 0.0 3.5 0.00 0.00 0.00 66 1010.5
20260504213047 55 249 0.0 3.5 0.00 0.00 0.00 65 1010.6
20260504211539 56 272 0.9 4.3 0.00 0.00 0.00 62 1010.5
20260504210033 56 298 1.7 4.3 0.00 0.00 0.00 61 1010.3
20260504204531 57 293 0.9 4.3 0.00 0.00 0.00 60 1010.2
20260504203043 57 301 2.6 11.3 0.00 0.00 0.00 56 1010.1
20260504201529 57 304 1.7 9.6 0.00 0.00 0.00 61 1009.9
20260504200029 56 250 1.7 6.1 0.00 0.00 0.00 65 1009.9
20260504194534 56 293 1.7 7.0 0.00 0.00 0.00 66 1009.8